AT170 Weather Reports


time (UTC)temp
C
wind
direction
speed
KPH
gust
KPH
rain 1hr
cm
rain 24hr
cm
rain mn
cm
humidity
%
barometer
mb
20260507003005 11 351 0.0 4.8 0.00 0.00 0.00 65 1009.3
20260507000004 11 349 0.0 0.0 0.00 0.00 0.00 64 1009.1
20260506233005 11 349 0.0 0.0 0.00 0.00 0.00 64 1009.2
20260506230005 10 349 0.0 0.0 0.00 0.00 0.00 63 1009.2
20260506223005 11 349 0.0 0.0 0.00 0.00 0.00 61 1008.9
20260506220007 11 349 0.0 0.0 0.00 0.00 0.00 58 1008.9
20260506213004 12 349 0.0 0.0 0.00 0.00 0.00 56 1009.0
20260506210005 12 349 0.0 0.0 0.00 0.00 0.00 52 1008.8
20260506203005 14 349 0.0 0.0 0.00 0.00 0.00 49 1008.7
20260506200005 15 349 0.0 0.0 0.00 0.00 0.00 44 1008.7
20260506193005 17 349 0.0 0.0 0.00 0.00 0.00 40 1008.5
20260506190004 18 349 0.0 0.0 0.00 0.00 0.00 37 1008.4
20260506183005 18 349 0.0 0.0 0.00 0.00 0.00 32 1008.5
20260506180005 19 349 0.0 4.8 0.00 0.00 0.00 33 1008.4
20260506173005 18 349 0.0 0.0 0.00 0.00 0.00 33 1008.6
20260506170004 18 349 0.0 0.0 0.00 0.00 0.00 35 1008.9
20260506163005 18 349 0.0 0.0 0.00 0.00 0.00 36 1008.9
20260506160005 18 349 0.0 4.8 0.00 0.00 0.00 36 1008.9
20260506153005 19 349 0.0 11.3 0.00 0.00 0.00 39 1009.0
20260506150005 19 355 1.6 11.3 0.00 0.00 0.00 40 1009.4
20260506143005 18 349 0.0 9.7 0.00 0.00 0.00 40 1009.7
20260506140004 18 350 0.0 9.7 0.00 0.00 0.00 42 1010.2
20260506130005 17 350 0.0 4.8 0.00 0.00 0.00 46 1010.7
20260506123005 18 350 1.6 14.5 0.00 0.00 0.00 45 1011.0
20260506120005 16 349 0.0 4.8 0.00 0.00 0.00 50 1011.3
20260506113005 15 349 0.0 0.0 0.00 0.00 0.00 51 1011.6
20260506110005 15 349 0.0 4.8 0.00 0.00 0.00 51 1011.6
20260506100004 15 348 0.0 4.8 0.00 0.00 0.00 52 1012.1
20260506093004 15 343 0.0 4.8 0.00 0.00 0.00 56 1012.0
20260506090006 13 337 0.0 3.2 0.00 0.00 0.00 62 1012.1
20260506083004 12 338 0.0 4.8 0.00 0.00 0.00 65 1012.1
20260506073004 10 325 0.0 3.2 0.00 0.00 0.00 74 1012.2
20260506043005 6 325 0.0 0.0 0.00 0.00 0.00 81 1011.2
20260506040006 6 325 0.0 0.0 0.00 0.00 0.00 79 1011.2
20260506030005 8 325 0.0 0.0 0.00 0.00 0.00 73 1011.2
20260506023004 8 325 0.0 0.0 0.00 0.00 0.00 71 1011.2
20260506020005 8 325 0.0 0.0 0.00 0.00 0.00 72 1011.3
20260506013004 8 325 0.0 0.0 0.00 0.00 0.00 72 1011.3
20260506010005 9 325 0.0 0.0 0.00 0.00 0.00 70 1011.5